Regional Weather Roundup
Issued by NWS

Home | Current Version | Previous Version | Text Only | Print | Product List | Glossary On
Versions: 1 2 3 4 5 6 7 8 9 10 11 12 13 14 15 16 17 18 19 20 21 22 23 24 25 26 27 28 29 30 31 32 33 34 35 36 37 38 39 40 41 42 43 44 45 46 47 48 49 50
895
ASUS46 KPQR 292310
RWROR

OREGON REGIONAL WEATHER ROUNDUP
NATIONAL WEATHER SERVICE PORTLAND OR
400 PM PDT FRI JUL 29 2016

NOTE: "FAIR" INDICATES FEW OR NO CLOUDS BELOW 12,000 FEET WITH
NO SIGNIFICANT WEATHER AND/OR OBSTRUCTIONS TO VISIBILITY.

ORZ001>013-300000-
NORTHWEST OREGON


CITY           SKY/WX    TMP DP  RH WIND       PRES   REMARKS
ASTORIA        SUNNY     68  57  68 NW16G24   30.01S
NEWPORT        CLOUDY    61  55  82 N24G39    30.03S
PORTLAND       SUNNY     93  56  28 NW15      29.88F HX  91
VANCOUVER WA   SUNNY     92  56  29 NW16G22   29.88F HX  90
SCAPPOOSE      SUNNY     93  56  28 N15       29.87F HX  91
HILLSBORO      SUNNY     94  54  25 N10       29.88F HX  92
AURORA         MOSUNNY   95  57  27 N7        29.89F HX  94
MCMINNVILLE    SUNNY     96  55  25 NW5       29.88F HX  94
SALEM          SUNNY     97  55  24 N15G21    29.87F HX  95
CORVALLIS        N/A     93  61  33 NW12      29.90F HX  93
EUGENE         SUNNY     96  50  20 N12G24    29.89F HX  93
$$

ORZ021-028-300000-
SOUTHWEST OREGON


CITY           SKY/WX    TMP DP  RH WIND       PRES   REMARKS
NORTH BEND     CLOUDY    64  57  77 N26G36    29.98S
BROOKINGS      SUNNY     65  55  70 S7        29.84F
ROSEBURG       SUNNY     98  45  16 N15G23    29.86F HX  94
SEXTON SUMMIT  SUNNY     85  52  32 MISG      30.03F
MEDFORD        SUNNY    101  55  21 VRB6      29.81F HX  99
$$

ORZ014>016-041-300000-
COLUMBIA GORGE


CITY           SKY/WX    TMP DP  RH WIND       PRES   REMARKS
TROUTDALE      SUNNY     94  58  29 VRB7      29.86F HX  93
THE DALLES     SUNNY    100  51  19 NW14      29.76F HX  97
$$

ORZ029>031-041-044-049-050-061>064-502-503-505>511-300000-
EASTERN OREGON


CITY           SKY/WX    TMP DP  RH WIND       PRES   REMARKS
REDMOND        SUNNY     98  35  11 VRB6G18   29.92F HX  93
BEND           SUNNY     95  43  16 NW10G16   29.94F HX  91
PRINEVILLE     SUNNY     95  43  16 N7        29.94F HX  91
KLAMATH FALLS  SUNNY     97  44  16 VRB3      29.98F HX  93
LAKEVIEW       SUNNY    N/A N/A N/A S6        30.02F
HERMISTON      SUNNY    103  47  15 NW5       29.76F HX  99
PENDLETON      SUNNY    101  41  12 W7        29.81F HX  96
JOHN DAY       SUNNY     98  33  10 W15G21    29.96F HX  92
MEACHAM        SUNNY     91  39  16 VRB5      29.99F
LA GRANDE      SUNNY     97  45  16 N9        29.89F HX  93
BAKER CITY     SUNNY     94  46  19 NW8       29.94F HX  90
BURNS          SUNNY     97  33  10 SW9       29.98F HX  91
ROME             N/A    103  32   8 S7        29.93F HX  96
ONTARIO        SUNNY    101  44  14 NE7       29.83F HX  97
$$




USA.gov is the U.S. government's official web portal to all federal, state and local government web resources and services.